Flag Weather past 2 weeks in Vaduz, Liechtenstein

Now
38 °F

Fog.


Feels Like: 34 °F
Forecast: 47 / 60 °F
Wind: 5 mph from North

Location: Vaduz

Current Time: Nov 29, 2014 at 8:31:21 AM

Latest Report: Nov 29, 2014 at 7:00 AM


Visibility: 1 mi

Pressure: 29.94 "Hg

Humidity: 97%

Dew point: 37 °F

Location of VaduzLocation

Historic Weather in Vaduz — Graph

°F

Vaduz temperature yesterday

Maximum temperature yesterday: 65 °F (at 8:00 PM)
Minimum temperature yesterday: 38 °F (at 8:00 AM)
Average temperature yesterday: 46 °F

Past Weeks' High & Low Weather Summary

 TemperatureHumidityPressure
High65 °F (Nov 28, 8:00 PM)100% (Nov 22, 6:00 AM)30.31 "Hg (Nov 22, 6:00 AM)
Low35 °F (Nov 23, 9:00 AM)33% (Nov 14, 11:00 PM)29.55 "Hg (Nov 15, 8:00 PM)
Average45 °F85%29.98 "Hg
* Reported Nov 14 7:00 AM — Nov 29 7:00 AM, Vaduz, Weather by CustomWeather, © 2014

Note: Actual official high and low records may vary slightly from our data, if they occured in-between our weather recording intervals... More about our weather records

Advertising

Vaduz weather history for previous 24 hours

 ConditionsComfort  
Time TempWeatherWind HumidityBarometerVisibility
7:00 AM
Nov 29
38 °FFog.5 mph97%29.94 "Hg1 mi
6:00 AM38 °FChilly.5 mph95%29.93 "HgN/A
5:00 AM37 °FChilly.5 mph96%29.91 "HgN/A
3:00 AM38 °FChilly.7 mph94%29.89 "HgN/A
2:00 AM39 °FChilly.7 mph93%29.88 "HgN/A
1:00 AM39 °FFog.7 mph93%29.88 "Hg5 mi
12:00 AM40 °FChilly.9 mph91%29.86 "HgN/A
11:00 PM
Nov 28
41 °FQuite cool.9 mph87%29.84 "HgN/A
10:00 PM43 °FFog.10 mph83%29.83 "Hg5 mi
9:00 PM47 °FCool.8 mph72%29.79 "HgN/A
8:00 PM65 °FMild.15 mph34%29.71 "HgN/A
7:00 PM65 °FFog.18 mph34%29.69 "Hg5 mi
6:00 PM64 °FMild.24 mph35%29.67 "HgN/A
5:00 PM64 °FMild.23 mph34%29.66 "HgN/A
4:00 PM65 °FFog.24 mph33%29.66 "Hg5 mi
3:00 PM45 °FCool.6 mph87%29.73 "HgN/A
2:00 PM43 °FQuite cool.8 mph95%29.75 "HgN/A
1:00 PM43 °FFog.5 mph93%29.78 "Hg4 mi
12:00 PM42 °FQuite cool.3 mph95%29.79 "HgN/A
11:00 AM41 °FQuite cool.6 mph97%29.82 "HgN/A
10:00 AM40 °FFog.2 mph97%29.83 "Hg1 mi
9:00 AM39 °FChilly.6 mph100%29.83 "HgN/A
8:00 AM38 °FChilly.3 mph100%29.82 "HgN/A
Weather by CustomWeather, © 2014

See weather overviewHow to use our weather pages